Location: Washington
(38.8950°N, 77.0370°W)
Time: 08:01:44
(UTC-05:00)

Tiangong 1 - Visible Passes

Search period start: 17 January 2017 00:00
Search period end: 27 January 2017 00:00
Orbit: 344 x 365 km, 42.8° (Epoch: 17 January)

Date Brightness Start Highest point End Pass type
(mag) Time Alt. Az. Time Alt. Az. Time Alt. Az.
22 Jan 3.0 19:01:48 10° SSW 19:03:10 19° S 19:03:10 19° S visible
23 Jan 3.4 17:54:18 10° SSE 17:55:18 11° SE 17:56:18 10° ESE visible
23 Jan 3.6 19:28:01 10° WSW 19:29:01 19° WSW 19:29:01 19° WSW visible
24 Jan 2.0 18:19:07 10° SW 18:21:48 31° SSE 18:23:11 20° ESE visible
25 Jan 0.8 18:45:30 10° WSW 18:48:29 85° SSE 18:48:52 63° ENE visible
26 Jan 2.3 19:12:23 10° W 19:14:30 36° WNW 19:14:30 36° WNW visible
